Wind_Speed
23 21 20 19 18 18 16 16 16 16 16 15 14 14 13 12 11 11 11 11 11 11 10 10 9 9 9 8 8 7 6 5 5 5 5 5 5 6 7 8 9 11 11 12 13 14 14 14 14 14 14 14 14 13 13 14 15 15 14 15 15 16 16 16 16 15 16 18 19 19 20 19 18 18 17 16 17 17 17 17 18 18 18 18 19
25 24 23 22 20 19 18 17 17 17 17 17 16 16 15 13 13 12 11 10 10 11 11 10 10 9 9 9 9 8 7 7 6 5 5 5 5 5 6 7 8 9 10 10 12 13 13 14 14 14 14 14 14 14 14 14 16 16 16 15 15 16 16 16 16 16 16 18 19 19 20 20 20 19 19 18 18 19 18 18 18 18 18 17 17
24 24 24 24 23 22 21 20 20 19 18 18 17 17 16 15 14 13 12 11 10 10 10 10 10 9 9 9 9 9 8 8 7 7 6 5 5 5 6 7 7 8 9 10 11 12 13 13 13 13 14 14 14 14 14 15 16 16 16 15 15 15 16 16 16 16 15 16 18 19 19 19 20 20 20 19 19 20 20 18 18 18 18 16 16
24 24 23 23 23 24 24 23 23 22 20 19 18 18 18 18 17 15 14 13 12 11 11 11 10 9 9 9 9 9 9 9 8 8 7 7 7 7 7 7 7 7 8 9 10 11 12 13 13 13 13 14 14 14 15 15 16 16 17 16 16 15 16 16 16 16 16 15 16 18 19 19 19 19 20 19 20 21 20 18 17 17 17 17 17
25 23 23 23 24 24 25 25 25 24 23 21 20 20 20 20 19 18 17 15 14 13 12 12 11 10 9 9 8 8 9 9 9 9 9 8 8 8 8 8 8 8 8 8 9 10 11 12 13 14 14 14 14 14 15 15 16 16 17 17 17 16 17 17 16 16 16 15 16 17 18 18 17 17 18 18 18 19 18 16 16 17 17 18 19
24 24 23 24 24 25 25 25 25 24 23 22 22 21 22 22 22 21 20 18 17 15 14 13 12 12 11 10 10 9 9 10 10 10 10 9 9 9 9 9 8 8 8 9 9 9 9 11 12 14 14 14 14 14 14 15 15 16 16 17 17 18 17 17 17 16 16 15 15 16 16 16 15 15 16 17 17 16 15 15 16 16 18 19 20
23 22 21 21 22 24 24 24 24 24 23 22 21 20 20 20 21 21 20 19 18 17 16 15 14 13 12 12 12 11 11 11 11 11 11 11 10 10 10 9 9 9 9 9 10 9 9 10 11 12 13 13 14 14 14 14 15 15 16 16 17 18 18 17 17 17 17 17 16 15 15 16 16 14 15 16 16 15 16 16 16 16 18 20 20
21 20 20 21 21 22 22 23 24 24 23 23 22 20 19 19 19 19 19 19 18 18 18 17 16 15 14 13 13 13 13 13 12 12 11 11 11 11 11 11 11 11 11 11 11 11 10 10 11 11 12 13 13 14 14 14 14 14 15 16 17 17 17 17 17 17 17 17 16 15 15 16 16 15 15 16 16 15 17 19 18 17 19 20 20
18 18 19 20 20 22 22 22 24 24 24 24 23 21 20 19 18 18 18 18 18 18 17 17 17 17 16 16 15 15 14 14 13 13 12 12 11 11 11 12 12 13 13 13 13 12 12 11 11 11 12 12 13 14 14 14 15 14 15 16 16 17 17 17 17 16 16 16 15 15 15 15 15 15 15 15 16 16 17 20 21 20 21 21 20
15 16 17 18 20 23 24 23 23 23 24 24 23 22 21 20 20 19 18 17 17 17 17 16 16 16 16 17 17 17 17 15 14 14 13 13 12 12 12 13 13 14 14 15 15 14 13 13 12 12 13 13 13 14 14 15 16 15 16 16 17 17 17 17 17 17 17 16 15 15 15 15 14 15 15 15 16 18 19 20 22 22 22 23 22
14 15 16 17 19 22 24 25 24 24 24 25 25 24 23 22 21 20 19 17 17 17 17 17 16 15 14 15 16 18 18 17 17 16 16 15 15 14 14 13 14 15 15 15 15 15 15 14 14 14 14 14 14 14 15 16 17 17 17 18 18 18 19 18 18 18 18 17 16 15 16 15 14 14 15 16 17 18 20 21 22 23 23 24 23
14 15 16 16 17 19 21 22 22 23 25 26 27 28 27 25 23 21 20 19 18 18 17 17 17 17 16 15 15 16 17 18 19 19 19 18 18 17 17 16 16 16 16 16 15 15 15 15 15 15 15 15 15 16 16 17 17 18 19 19 20 20 20 20 19 19 19 18 18 17 17 17 16 15 15 16 18 19 20 21 23 24 25 26 25
15 15 15 16 16 17 17 18 19 21 24 27 29 29 26 24 23 23 22 22 21 20 18 18 18 19 19 18 17 16 16 17 19 21 21 21 21 21 21 21 20 19 18 18 17 17 17 16 16 15 15 15 15 16 16 17 17 18 19 20 21 21 22 22 21 21 20 20 20 19 18 19 19 17 16 18 20 21 22 22 23 25 26 27 26
17 16 16 16 16 16 16 17 18 20 23 25 27 26 24 22 23 24 25 24 23 22 21 20 20 21 21 20 19 18 18 17 18 20 22 22 23 24 24 24 23 22 21 20 19 19 19 19 18 18 17 17 17 17 17 17 17 18 19 19 19 20 21 22 22 22 22 22 22 21 20 20 20 19 18 20 22 22 23 24 25 26 27 27 26
19 18 18 18 18 17 18 18 18 19 21 23 24 23 21 21 23 24 25 26 26 26 25 24 23 24 24 23 22 22 21 19 19 19 20 22 23 24 25 25 25 24 23 23 22 21 20 21 21 21 20 21 21 21 21 21 21 21 21 21 19 19 19 20 20 20 21 23 23 23 22 21 21 21 21 22 23 24 25 27 27 28 28 27 26
17 17 18 19 18 18 19 19 18 18 18 20 22 22 20 19 21 23 24 25 26 27 27 26 25 25 25 25 25 25 24 23 22 21 21 22 23 24 25 26 26 26 25 25 24 24 24 24 24 24 24 24 24 24 24 25 26 26 26 25 23 22 21 20 20 21 21 22 22 23 23 23 23 23 23 24 25 26 28 29 29 29 29 28 26
14 16 18 18 19 20 20 20 20 19 18 18 20 21 20 20 20 22 23 24 24 25 25 26 26 27 28 27 26 26 26 26 26 25 24 24 24 24 24 24 25 26 26 25 26 26 26 27 27 27 28 27 26 26 26 27 28 29 28 28 27 26 24 22 23 24 24 24 24 23 24 24 24 24 24 25 26 27 30 31 30 29 30 30 28
12 14 15 16 17 19 19 20 20 20 19 18 18 19 20 21 22 23 23 24 24 24 25 26 27 29 30 29 27 27 27 27 28 28 27 27 26 26 25 25 26 26 26 26 26 26 27 27 27 29 29 29 28 27 27 28 29 29 29 28 28 28 25 24 25 25 25 26 26 26 26 25 25 26 26 26 26 28 31 32 31 31 32 32 31
9 10 10 11 12 13 14 15 16 16 17 17 19 20 22 23 23 24 24 25 25 25 26 26 28 30 31 31 30 29 28 27 27 27 27 28 28 28 28 28 27 27 27 27 27 28 28 27 27 29 30 30 30 30 30 30 30 29 28 29 30 28 25 25 27 27 27 27 27 27 27 27 27 28 28 28 28 29 31 32 32 32 33 33 33
9 9 9 8 8 8 9 9 10 11 12 13 15 18 21 23 25 25 25 25 26 26 26 25 26 28 30 31 31 31 29 26 25 26 26 27 29 30 30 30 30 30 30 31 30 29 29 28 28 28 29 30 31 31 31 32 32 32 31 30 30 27 26 28 30 29 29 29 28 28 29 28 28 29 29 29 30 30 31 31 31 31 32 33 32
11 11 10 10 9 9 9 9 9 9 9 9 10 12 15 18 21 23 25 25 25 25 25 25 26 27 28 29 30 30 28 26 24 25 26 27 29 31 32 32 33 33 33 34 33 32 31 30 28 28 28 30 31 31 32 33 35 35 34 32 31 28 28 29 31 31 31 30 30 30 30 30 30 31 31 30 30 30 30 31 31 31 31 32 32
13 13 13 13 13 12 12 12 11 11 11 10 10 10 11 12 14 17 21 23 25 26 26 27 27 28 29 29 29 29 28 26 25 25 26 27 29 30 31 32 33 35 35 35 35 34 33 32 31 29 28 29 30 31 33 34 35 37 37 35 34 32 31 30 30 31 31 31 32 32 32 31 31 31 31 31 30 30 30 30 31 31 31 31 31
18 18 17 17 17 17 16 16 16 15 15 14 13 13 13 13 13 14 16 19 22 25 27 29 30 31 32 32 32 31 29 28 27 26 26 27 28 29 30 30 32 34 35 35 35 34 34 33 33 31 30 30 30 30 32 33 33 34 34 35 35 35 35 33 32 32 32 32 33 33 32 32 32 31 31 31 31 31 31 32 32 32 32 31 31
21 21 21 21 21 20 20 19 19 19 19 18 18 18 17 17 16 16 16 17 19 21 24 27 29 32 33 35 35 34 33 32 31 30 29 29 29 29 30 30 31 31 32 33 33 33 33 33 33 33 33 32 32 31 31 31 31 31 32 34 35 36 36 36 35 34 34 34 34 34 33 33 33 32 31 30 30 32 33 34 34 33 32 32 31
23 23 23 23 23 24 24 23 22 22 22 22 23 23 23 22 21 21 20 20 20 20 21 23 25 27 30 32 34 35 36 36 34 34 33 32 31 30 30 30 31 31 31 31 32 32 32 33 33 33 34 34 33 33 33 32 32 32 32 33 34 35 36 36 36 36 36 35 35 35 35 35 35 33 31 31 31 32 33 34 34 33 33 32 32
25 25 25 25 24 25 26 26 26 26 26 26 27 27 27 26 26 26 25 24 24 23 23 23 24 25 26 28 30 32 34 36 37 37 36 35 33 32 31 31 32 33 32 32 32 33 33 33 33 33 33 34 33 33 33 33 33 33 32 33 33 34 34 35 35 36 36 35 35 34 34 34 34 33 32 32 33 32 32 33 33 32 31 32 32
26 26 26 26 26 26 27 27 27 28 29 30 30 30 30 30 30 30 29 29 28 27 27 26 26 26 27 27 27 28 30 33 35 36 37 37 36 33 31 31 32 32 33 33 33 33 35 36 35 34 33 33 33 33 33 33 33 33 32 32 33 33 32 32 33 34 34 33 32 31 30 30 31 31 32 33 33 33 32 32 32 30 29 30 31
24 24 24 25 26 26 27 26 27 28 29 30 31 32 32 32 32 32 33 33 32 32 32 31 30 30 29 29 28 28 28 30 31 33 34 36 36 35 33 32 31 32 33 34 34 35 37 38 38 37 35 35 34 34 34 34 33 33 33 33 33 32 32 33 33 33 32 31 29 28 27 26 27 28 30 31 32 31 31 30 29 27 27 28 28
22 23 23 24 24 25 25 24 24 26 28 29 31 31 32 32 33 34 35 35 36 36 36 35 35 34 33 33 32 30 29 30 30 30 32 33 34 33 33 33 33 33 35 36 36 37 38 38 39 39 39 38 37 36 36 35 34 34 34 34 34 34 34 35 35 35 33 32 30 29 27 27 26 27 28 30 29 28 28 28 27 25 25 25 25
23 23 23 23 23 23 23 23 23 25 27 28 29 29 30 31 32 33 34 35 36 37 37 38 38 38 37 37 36 35 34 33 31 31 31 32 32 31 31 32 33 34 37 39 40 39 38 37 38 40 42 42 41 39 38 37 36 36 36 36 37 37 37 37 38 37 36 34 33 31 29 28 27 26 26 27 27 27 28 28 27 25 24 24 24
22 23 23 23 23 23 23 22 22 22 23 25 26 26 28 29 31 31 32 33 34 36 37 38 39 40 40 40 40 40 39 37 36 34 33 33 32 32 31 31 32 33 36 38 41 41 40 39 39 41 44 46 44 41 40 39 38 38 38 38 39 39 40 39 39 39 38 37 36 34 32 31 29 26 25 25 25 26 27 27 26 25 24 24 24
21 21 22 22 22 22 22 22 21 20 19 20 22 24 25 26 27 29 30 31 32 33 35 36 37 39 40 41 41 42 42 41 41 40 38 37 36 34 32 32 32 33 35 37 40 43 44 44 43 43 45 46 45 44 43 42 41 41 41 41 41 41 41 41 41 41 40 39 38 36 35 34 33 30 28 26 26 26 26 25 25 24 24 25 25
21 22 22 23 23 22 22 22 21 20 19 19 20 22 24 24 25 26 27 29 30 31 32 34 35 37 39 40 41 42 43 43 44 44 43 42 41 39 37 36 35 35 35 36 38 42 44 46 47 47 48 48 48 47 46 45 44 43 43 44 44 43 42 42 43 43 42 41 40 39 38 37 36 35 32 29 28 28 27 26 25 25 25 26 26
21 21 21 22 21 21 21 20 20 20 19 18 19 21 23 24 24 24 25 26 27 29 30 32 33 35 36 38 39 41 42 44 45 45 45 45 44 43 43 42 41 40 38 38 38 40 42 43 45 46 48 48 48 48 47 45 45 45 44 45 45 45 44 44 44 44 44 44 43 41 39 39 38 37 35 32 30 30 29 28 27 27 26 26 26
20 20 20 21 20 20 20 20 20 21 21 21 21 21 22 23 23 24 24 24 25 26 28 30 32 33 34 35 36 38 40 41 43 44 44 45 46 46 46 46 46 45 44 43 42 41 41 41 41 41 42 43 43 44 45 45 45 45 45 45 45 45 44 44 44 44 44 45 45 43 41 40 39 38 37 35 34 33 32 30 28 28 28 28 27
21 21 22 22 22 22 22 23 23 24 24 25 25 24 24 24 24 24 24 25 25 25 26 28 30 32 34 35 36 37 37 38 39 40 41 43 44 46 47 48 48 48 48 47 46 45 44 43 42 41 40 39 40 40 41 42 43 44 45 45 45 45 45 44 44 44 43 44 45 46 44 42 40 39 39 38 37 35 34 31 30 30 30 30 29
23 24 24 24 24 25 25 25 26 26 26 27 27 27 27 27 27 27 27 27 27 27 27 28 29 31 32 34 36 37 37 38 38 38 39 40 41 43 46 48 50 50 50 49 49 48 48 47 46 44 43 41 40 39 40 40 41 41 42 43 43 44 45 45 44 44 44 43 43 44 45 44 42 40 40 40 39 38 35 33 32 32 32 31 31
25 25 25 25 26 26 26 27 27 28 28 29 29 29 29 29 29 30 29 29 29 29 29 30 30 31 32 34 35 37 38 38 38 38 39 39 40 42 43 46 49 51 52 52 51 51 50 50 49 48 47 45 43 42 41 41 41 41 41 41 42 42 43 44 43 43 45 44 43 42 43 42 40 39 39 40 41 40 37 34 33 33 33 33 33
24 25 25 25 26 26 27 27 28 28 29 29 30 30 30 31 31 31 31 31 31 31 32 32 32 32 33 34 35 37 38 39 39 39 39 39 40 41 42 44 46 49 51 53 54 54 53 52 52 51 51 50 48 46 44 43 42 42 42 42 42 42 42 42 42 42 43 46 45 44 43 45 44 43 43 43 43 42 41 40 37 35 35 35 35
24 24 25 25 26 26 27 27 28 28 29 29 30 31 31 32 32 32 32 32 32 33 33 34 34 34 34 35 36 37 38 39 40 40 40 40 40 41 42 43 44 46 49 52 54 55 55 55 55 54 53 53 52 50 48 47 45 44 43 43 43 43 43 42 42 42 42 44 44 42 41 43 44 44 44 45 44 44 45 45 43 40 39 39 38
24 25 25 26 26 27 28 28 28 29 29 30 30 31 31 32 33 33 33 33 33 34 34 35 35 36 36 36 37 37 38 39 40 41 42 41 41 41 41 42 44 45 47 50 52 55 56 57 57 57 56 55 54 53 51 50 49 48 46 45 44 44 44 44 44 44 43 43 42 40 38 38 40 43 45 48 49 47 46 46 46 44 43 42 41
25 25 25 26 26 27 27 28 28 29 30 30 30 31 31 32 32 33 33 33 34 34 35 35 36 36 37 37 37 38 38 39 39 40 41 42 42 42 42 42 44 46 47 49 51 53 55 56 58 58 58 57 57 55 54 53 51 50 49 48 47 46 45 45 45 46 45 44 44 43 42 41 43 45 47 49 51 50 48 47 47 47 46 45 44
24 25 25 26 26 26 27 27 28 28 29 30 30 31 31 32 33 33 34 34 34 34 35 35 36 36 37 37 37 38 39 39 40 41 41 42 43 43 43 43 45 46 47 49 50 52 53 54 56 57 57 58 58 57 56 55 54 52 51 50 49 48 47 46 46 46 46 46 46 46 46 45 44 44 45 46 48 49 50 50 50 50 49 48 46
24 24 25 26 26 27 27 28 28 29 29 30 30 31 31 32 33 34 35 35 36 36 36 37 37 37 37 38 38 39 39 39 40 40 41 42 43 43 44 44 45 47 48 49 50 51 53 53 54 54 55 56 57 58 57 56 56 55 54 52 51 50 49 49 48 47 46 46 47 47 48 48 47 46 45 45 45 47 48 49 50 52 52 51 48
23 24 24 25 26 27 28 28 29 30 30 30 31 31 31 32 33 34 35 36 37 37 38 38 38 39 39 39 39 40 40 40 40 40 41 42 43 43 44 45 46 48 49 49 50 51 52 53 53 54 53 53 54 55 56 56 55 55 55 54 53 52 51 51 50 49 48 47 47 47 47 47 48 48 48 48 47 48 48 48 48 50 52 51 50
23 24 24 25 26 27 28 29 29 30 31 31 32 32 32 33 33 34 35 36 37 38 39 39 40 40 40 41 41 41 41 42 42 41 41 42 42 43 44 45 47 49 50 50 51 51 52 52 53 53 53 52 52 52 53 53 53 53 53 54 54 53 53 53 52 51 50 49 48 48 47 46 46 47 48 49 50 50 50 50 49 49 50 50 50
24 25 25 26 27 28 29 30 31 31 32 33 33 34 34 35 35 36 37 38 39 39 40 40 41 41 41 42 42 43 43 43 43 43 43 43 42 42 43 45 46 48 50 50 51 51 51 51 52 53 53 52 51 50 50 50 51 51 52 52 52 53 53 53 53 53 52 51 50 49 48 47 46 45 45 47 48 49 50 51 51 51 51 51 50
26 27 28 28 29 30 31 32 33 33 34 35 35 36 36 37 37 38 38 39 40 41 41 41 42 42 42 42 42 43 43 44 44 44 44 44 43 43 43 44 46 48 49 50 50 50 50 51 51 51 51 51 50 49 48 48 49 49 49 50 50 51 51 51 52 52 53 53 53 51 50 49 47 46 45 45 45 46 47 48 49 50 51 52 51
28 29 29 30 31 32 33 33 34 35 36 36 37 38 38 38 39 39 40 40 41 42 42 42 42 42 42 42 42 42 43 43 44 44 45 45 45 45 44 45 45 47 48 49 49 49 49 49 50 50 50 49 49 48 48 48 48 48 48 48 48 49 49 50 50 50 51 52 53 53 52 51 49 48 47 45 44 44 44 44 45 47 49 50 51
29 30 31 32 32 33 34 35 36 36 37 37 38 39 39 39 40 40 40 41 41 42 42 43 43 42 42 43 43 43 43 43 44 44 44 44 45 45 45 45 46 47 48 49 49 49 49 48 48 48 48 48 48 48 48 48 48 48 48 48 48 48 48 48 48 48 49 50 51 52 52 53 52 50 50 48 47 45 44 42 42 43 44 47 49
29 30 31 32 33 34 34 35 36 37 37 38 39 39 39 40 40 40 40 40 41 41 41 42 42 43 43 43 43 43 44 44 45 45 45 45 45 45 45 46 46 47 48 49 49 50 49 48 47 46 46 46 47 47 47 48 48 48 48 48 48 47 47 47 47 47 47 48 48 48 49 50 51 51 51 51 50 49 48 46 44 43 42 42 44
Wind_Direction
201 203 203 204 208 210 209 209 207 203 203 202 202 202 203 203 202 197 192 188 184 184 187 191 195 201 204 204 203 202 205 208 211 212 213 214 214 208 207 210 211 214 221 222 220 222 226 230 232 232 235 238 240 237 231 231 234 235 239 243 244 244 244 244 243 242 249 256 260 263 266 268 270 272 274 276 278 282 289 295 299 303 309 315 318
200 199 200 201 204 210 212 212 213 211 208 205 202 203 204 206 208 204 200 196 190 186 188 190 193 198 204 208 211 211 210 212 216 219 221 223 227 223 214 213 215 218 224 226 224 223 225 228 231 232 237 239 241 243 239 236 236 238 241 242 244 248 250 252 252 250 253 258 261 265 268 272 274 276 277 279 281 284 287 292 296 300 304 308 313
207 203 202 201 200 204 211 214 216 216 214 210 205 204 205 207 211 211 209 207 202 197 196 197 198 200 203 206 211 217 218 218 217 217 220 224 228 232 228 224 223 222 226 229 229 228 228 230 231 232 237 240 241 244 243 240 239 241 243 243 245 250 256 261 262 262 261 261 265 269 271 271 271 272 274 276 278 280 283 287 291 295 299 303 310
212 209 208 208 205 204 207 211 215 217 216 213 210 207 206 208 211 212 214 214 211 207 204 206 208 208 208 209 211 216 222 226 224 220 220 222 223 228 232 233 232 230 231 234 234 233 232 234 236 237 237 240 243 246 246 245 242 242 245 246 247 249 254 259 261 262 262 261 263 266 269 270 270 271 272 272 274 276 279 282 284 290 297 304 310
214 212 211 213 211 210 210 209 212 214 214 213 211 208 206 206 208 210 212 214 214 214 211 210 213 214 216 220 220 219 222 229 232 229 226 225 224 226 230 235 238 238 237 238 240 240 237 236 238 241 242 242 245 247 249 249 247 245 247 249 252 253 254 257 259 259 260 260 260 263 268 272 272 272 271 270 271 274 276 279 282 288 298 304 306
217 217 218 216 213 214 214 212 213 212 212 213 211 209 207 207 209 209 209 210 211 214 215 214 214 214 217 223 226 228 227 228 231 233 233 233 232 233 234 234 239 243 245 244 244 244 242 240 239 241 243 244 246 248 249 250 250 249 250 252 255 257 258 260 262 261 261 261 261 262 265 268 268 267 268 269 272 272 271 274 280 291 299 299 299
216 219 221 218 215 215 215 215 216 213 212 214 214 213 212 211 213 214 214 213 211 211 213 214 215 216 217 220 225 230 232 232 232 232 234 237 239 243 243 240 239 241 245 247 247 247 246 246 245 244 244 244 246 247 249 250 250 250 252 254 257 259 260 261 263 263 263 262 261 260 260 263 266 266 265 268 273 274 274 273 277 287 294 294 296
217 222 225 222 219 217 215 214 214 213 214 216 216 216 216 216 216 218 221 222 221 218 214 212 213 216 218 219 221 227 232 236 237 237 237 238 239 243 246 247 244 241 242 244 247 249 249 250 250 249 249 248 247 248 248 249 250 250 253 257 259 262 264 265 265 265 266 266 264 263 262 262 265 267 265 268 272 276 281 282 282 286 289 290 296
228 231 234 230 224 219 216 214 212 211 214 217 217 218 217 217 218 219 221 224 229 232 229 222 216 215 217 219 219 223 227 232 238 240 241 241 241 240 241 243 245 244 243 243 243 245 248 249 250 251 252 252 250 251 251 251 252 252 255 259 261 264 266 268 269 270 271 271 271 271 269 267 268 270 269 271 274 277 281 283 284 287 289 290 296
232 232 231 230 228 225 219 216 216 216 216 215 216 218 218 219 219 220 220 220 225 235 242 242 233 223 221 222 222 223 224 226 232 238 241 241 240 239 238 238 240 242 244 244 244 246 248 250 250 250 251 253 253 255 256 258 258 257 257 259 260 262 264 266 268 270 272 272 274 275 272 270 271 273 271 271 274 276 278 280 282 286 289 291 294
230 229 228 227 230 228 222 218 218 221 223 221 219 218 218 220 222 222 221 219 219 225 235 244 246 241 235 232 232 232 229 226 227 232 238 241 241 241 239 238 239 240 243 245 245 247 249 251 252 253 253 254 255 256 258 260 262 263 263 263 264 265 266 267 268 270 272 273 274 274 272 271 272 272 271 271 273 276 279 282 284 287 289 289 291
234 228 227 226 225 224 223 223 223 226 229 230 228 223 219 219 222 226 226 225 224 224 226 234 243 247 246 243 241 240 239 236 232 230 232 237 241 244 244 243 242 241 243 245 246 247 247 248 250 252 255 256 257 257 256 257 259 262 264 266 268 269 270 270 270 270 271 271 270 270 271 273 272 271 274 276 277 279 282 286 288 289 289 289 292
233 225 224 226 223 220 222 229 232 233 234 235 236 234 228 221 222 228 232 232 230 229 229 231 237 244 248 248 247 245 244 244 243 239 236 234 237 241 243 244 245 245 245 245 246 247 249 250 250 250 252 255 257 258 258 258 258 259 261 263 265 269 271 273 274 273 272 271 269 269 270 272 271 271 276 278 278 280 283 286 288 287 287 290 294
230 226 225 225 224 223 224 226 229 233 236 237 239 242 239 232 230 232 234 236 235 234 235 235 237 242 246 248 249 247 245 245 247 248 247 243 240 241 243 244 246 248 250 250 249 249 250 253 255 256 258 259 262 264 265 266 265 264 263 260 259 261 264 268 272 275 277 277 275 273 272 272 272 271 274 276 277 280 282 283 284 284 285 288 291
226 228 229 227 226 226 227 228 228 230 235 240 242 243 241 238 238 238 238 239 240 240 241 242 242 241 243 247 250 248 245 243 243 247 250 250 248 247 248 249 249 251 254 256 258 259 259 261 261 263 264 265 267 269 271 272 272 271 270 268 265 263 262 264 269 273 275 277 278 279 278 277 277 274 274 276 277 280 282 281 282 284 286 288 289
223 225 226 227 227 229 232 233 231 230 235 240 240 239 238 237 238 240 241 243 244 244 246 249 248 243 242 248 252 250 247 244 242 243 246 248 250 249 250 251 252 253 254 256 260 262 263 265 266 267 267 266 267 267 269 270 271 270 271 272 272 272 270 270 273 275 276 277 278 280 280 280 279 277 278 279 280 281 281 280 282 287 288 288 288
224 226 226 227 227 230 234 235 231 229 231 235 234 233 235 236 237 240 241 243 244 245 247 250 249 245 245 247 249 249 249 247 245 244 244 245 248 250 251 251 252 253 253 253 255 257 258 261 263 265 267 267 267 267 267 268 268 268 269 270 271 271 271 271 273 274 276 277 276 276 276 276 276 276 276 277 280 281 281 281 284 287 287 287 288
220 223 226 228 228 230 233 235 233 231 230 233 233 233 235 238 240 242 243 243 243 244 247 248 247 246 246 248 249 250 251 251 249 248 247 247 249 251 253 254 254 254 255 254 255 256 256 257 259 261 264 266 267 267 267 267 268 268 269 270 269 267 267 269 270 269 269 270 271 271 270 270 269 269 270 270 273 275 278 281 285 287 286 287 289
208 212 217 220 222 227 232 236 239 238 236 237 237 237 237 237 237 239 240 241 242 243 245 246 245 245 246 249 251 252 254 255 255 255 255 256 256 258 260 261 262 263 263 263 263 261 259 258 258 259 262 264 265 265 265 266 267 266 267 267 266 264 265 267 268 266 265 265 266 267 267 267 267 267 267 267 268 269 273 277 281 283 285 287 289
202 204 208 210 211 216 223 230 238 242 242 243 242 241 241 239 238 236 235 235 238 240 242 243 243 244 246 249 251 251 251 252 255 258 259 257 256 255 257 260 262 264 266 267 267 267 266 264 262 262 264 264 265 265 265 266 267 267 265 264 264 264 264 265 265 265 265 264 264 265 266 266 267 267 266 266 266 267 269 272 274 277 281 284 286
215 215 216 216 219 222 226 231 235 237 242 244 244 245 245 244 242 239 235 232 233 236 239 241 243 245 246 247 248 248 247 246 249 253 254 254 253 252 253 256 259 261 263 264 266 267 267 267 268 268 268 267 265 265 264 265 266 267 267 267 267 266 264 264 265 266 266 266 266 266 265 265 265 265 266 266 266 267 269 271 272 275 277 280 282
233 235 233 232 232 234 236 239 241 243 246 247 247 247 248 249 248 245 241 237 236 237 237 238 241 244 246 246 247 247 247 246 246 246 248 252 254 256 258 260 262 264 265 265 267 268 269 269 269 268 267 267 265 265 265 265 266 267 269 270 271 271 269 268 268 269 269 269 269 269 269 268 268 268 269 269 271 272 273 273 274 274 275 277 279
238 240 242 243 242 240 240 241 243 246 249 250 250 249 249 250 250 250 249 247 244 243 241 239 239 241 244 247 247 247 247 247 247 246 245 247 251 254 258 261 264 266 267 267 267 268 269 269 268 266 264 264 264 264 264 265 266 267 269 270 272 274 274 273 272 272 271 271 271 271 271 271 270 270 271 273 275 275 274 273 273 273 275 276 279
238 238 240 244 246 246 245 243 243 245 247 249 251 251 249 250 249 249 250 250 249 249 247 245 243 243 245 247 248 248 246 245 246 246 246 245 246 249 253 257 260 263 267 269 268 265 265 265 265 264 262 261 261 261 261 262 263 264 265 268 270 272 273 274 273 273 272 272 272 274 274 273 271 269 269 270 271 272 273 273 274 275 277 279 279
242 241 240 240 243 247 249 248 247 248 248 248 250 250 249 250 249 249 250 251 251 252 253 253 252 251 250 250 250 251 249 247 246 246 246 246 245 244 247 251 254 257 260 264 266 265 263 262 262 262 261 259 259 259 259 260 261 260 262 264 266 268 270 271 272 272 273 274 275 277 277 275 273 271 269 268 267 269 271 273 275 277 279 281 281
247 247 247 245 244 246 249 250 250 251 251 250 250 251 251 250 249 249 250 250 251 252 254 256 257 258 258 258 256 255 255 253 252 250 249 250 250 248 246 247 251 254 255 257 261 264 265 264 261 259 260 261 261 261 261 261 261 260 260 261 262 263 265 268 269 269 270 271 273 275 275 274 272 269 268 267 267 267 268 270 272 274 278 282 283
250 251 251 251 250 249 250 251 252 252 252 252 252 252 252 252 251 251 250 250 250 250 250 251 253 255 258 259 260 259 258 257 257 255 253 254 256 255 250 246 248 252 254 255 258 261 264 265 264 261 260 261 263 263 263 263 262 260 258 257 258 259 261 263 264 263 263 265 268 271 273 272 268 265 263 263 264 265 266 268 271 273 277 281 282
253 254 253 253 252 251 251 252 253 253 254 254 253 253 252 252 253 253 253 252 251 250 249 249 250 252 254 256 257 258 259 259 258 257 256 257 259 260 258 253 249 249 252 253 254 256 259 261 263 262 261 260 260 261 262 262 261 258 256 255 256 257 258 259 258 259 261 265 268 270 271 269 267 264 261 260 262 264 264 265 268 272 277 281 283
256 256 256 255 254 253 252 252 252 253 253 253 254 254 253 253 252 253 254 255 253 252 251 251 251 252 253 254 254 254 256 258 259 258 257 257 258 260 261 259 255 252 251 251 250 251 253 257 259 259 260 259 258 258 259 260 259 256 254 254 255 256 257 258 258 258 260 263 266 268 269 269 269 267 264 261 260 260 260 261 265 269 274 280 284
257 258 258 258 258 257 256 254 253 252 252 253 254 255 255 255 253 251 253 255 256 255 255 254 253 253 253 254 254 254 254 255 257 258 258 258 258 258 258 259 257 254 251 250 249 248 248 251 254 255 257 258 257 257 258 259 258 255 255 255 256 256 258 259 260 261 261 262 264 265 266 268 270 270 268 265 260 257 256 258 261 265 270 277 283
257 258 259 260 261 261 260 259 258 256 256 256 256 255 255 256 255 254 253 254 255 257 257 256 256 255 253 253 253 255 256 256 256 256 256 256 257 258 258 258 258 256 253 252 251 250 248 248 250 251 253 255 257 258 260 260 258 256 255 256 257 258 260 261 263 263 263 263 265 266 266 267 269 270 269 267 264 260 260 261 263 265 268 273 280
256 257 258 259 260 261 262 263 262 261 259 258 257 257 256 256 257 258 257 257 256 256 257 257 258 258 257 255 253 253 255 256 257 257 257 256 256 257 257 257 257 257 256 254 252 251 250 250 250 251 252 255 257 259 261 260 259 257 256 256 257 260 262 264 264 264 264 263 264 266 267 268 269 269 268 268 267 266 265 264 265 266 267 271 277
257 258 259 260 261 263 264 265 265 264 261 258 257 258 259 258 257 258 259 261 261 261 260 260 259 259 259 259 258 256 255 255 256 257 257 258 257 257 258 258 257 255 255 254 253 252 252 252 252 253 256 258 260 261 261 259 257 257 256 257 258 259 261 263 264 265 265 264 264 265 267 268 269 268 268 269 270 270 269 267 266 266 268 271 274
257 259 260 262 263 265 266 267 267 266 263 258 255 255 258 260 261 260 260 261 263 265 266 266 265 264 263 262 262 261 259 258 257 256 256 257 259 259 260 261 261 260 258 256 254 253 253 254 254 255 258 260 261 261 261 259 258 258 258 258 259 259 261 262 263 264 265 265 265 266 267 269 269 269 268 269 270 271 272 273 272 272 272 272 272
258 260 262 264 265 266 267 267 268 268 267 264 261 259 260 263 264 265 265 264 264 265 266 267 269 270 270 269 267 265 264 263 261 260 259 258 260 260 261 261 262 263 263 262 261 259 259 258 258 258 259 260 261 261 262 261 260 259 259 260 260 261 262 263 264 265 266 267 267 267 268 269 271 270 269 270 272 273 274 275 277 277 275 273 272
264 265 267 268 268 268 268 268 267 268 268 268 267 267 266 265 266 267 268 268 267 266 265 265 267 268 270 272 272 271 270 270 268 266 264 262 261 261 262 262 261 262 264 265 266 265 265 266 266 265 264 262 262 262 262 262 261 260 259 260 260 261 262 263 265 266 266 267 268 268 268 269 271 271 269 269 271 274 277 279 280 279 278 276 274
266 267 268 269 269 269 269 269 268 268 268 268 269 269 268 268 268 267 267 267 268 267 266 265 266 266 267 269 271 272 273 273 273 273 271 269 267 265 264 263 263 262 263 264 266 266 267 268 269 270 269 268 266 264 263 263 262 262 261 261 261 261 262 263 264 266 266 266 266 266 267 268 270 270 269 269 270 274 281 286 286 284 282 281 280
267 268 268 268 269 270 270 270 270 270 270 270 270 270 270 269 269 268 268 268 268 268 268 267 266 266 267 268 269 271 272 272 273 273 273 273 272 270 268 266 266 265 265 265 265 266 266 267 269 270 270 271 270 268 266 265 264 263 263 262 262 262 262 262 263 265 267 267 266 266 266 267 269 269 268 269 271 274 279 285 286 285 283 282 281
268 268 268 267 268 268 268 269 269 269 270 270 271 271 270 270 269 269 269 269 269 269 269 269 268 267 267 267 268 269 271 272 272 272 271 271 271 271 271 270 269 268 267 267 266 266 267 268 269 269 270 271 271 271 270 269 267 266 265 264 263 263 263 262 262 262 264 266 267 267 267 266 267 268 268 268 270 273 277 281 283 283 282 281 280
268 268 268 269 269 268 268 268 269 269 270 270 270 270 270 270 270 270 270 269 269 269 269 269 270 269 269 268 268 268 269 270 271 271 271 270 269 269 270 270 270 269 268 268 267 267 267 268 268 269 270 271 272 273 273 272 271 269 268 267 266 265 264 264 263 262 262 264 266 268 269 268 268 269 267 266 268 273 277 280 281 281 281 281 280
267 267 268 269 270 270 270 271 271 271 272 272 272 272 272 272 272 272 271 270 269 269 269 270 270 270 270 270 270 270 269 269 269 270 271 271 270 268 268 268 268 268 268 268 267 267 267 267 267 268 269 271 272 273 274 274 274 273 271 270 269 268 267 266 265 263 262 262 263 265 265 265 265 265 266 266 270 273 275 276 278 279 280 280 278
268 269 269 269 270 271 272 273 274 274 274 274 274 274 274 274 274 273 273 271 270 270 270 270 270 270 270 271 271 272 272 271 271 270 270 270 270 269 268 267 266 266 267 268 268 268 267 267 267 267 268 269 270 272 273 274 274 274 274 273 272 271 270 269 268 266 265 263 262 261 262 261 263 265 267 269 272 273 274 274 274 276 277 278 277
269 270 270 271 271 272 272 272 273 273 273 274 274 274 274 275 275 274 274 273 272 271 271 271 270 271 271 271 271 272 272 272 272 272 271 271 270 269 269 268 266 266 266 267 267 268 268 268 267 267 267 268 268 269 271 272 273 274 274 274 274 273 272 271 270 269 268 266 263 262 262 262 263 265 267 269 271 273 273 273 273 273 273 274 274
269 270 271 271 272 272 272 272 272 272 273 273 273 273 274 274 274 275 275 275 274 274 273 272 272 272 271 271 272 272 272 272 272 273 272 272 271 270 269 268 267 267 266 266 266 267 268 268 268 268 268 268 268 268 269 270 271 272 273 274 274 274 273 272 271 271 270 269 266 264 262 262 263 263 265 266 268 270 271 272 272 272 272 272 271
271 272 273 274 274 274 274 274 274 274 274 274 274 274 275 275 275 276 276 276 276 275 275 274 273 273 272 272 272 272 272 272 272 272 272 272 271 271 270 269 268 267 266 266 265 266 267 268 269 269 269 269 268 268 269 269 270 271 272 273 274 274 273 273 272 271 271 270 269 268 266 264 263 263 263 263 264 265 267 269 270 271 272 272 271
274 275 275 276 277 277 277 277 277 276 276 276 276 276 276 276 276 277 277 277 277 276 276 275 275 274 274 273 272 272 272 272 271 272 271 271 271 271 270 269 268 268 267 266 265 265 266 267 268 268 269 269 269 269 269 269 270 270 270 271 272 273 274 273 273 272 271 271 270 270 269 268 266 265 264 264 263 263 264 265 267 269 270 271 271
278 279 279 279 279 280 279 280 280 279 279 279 279 279 278 278 278 277 277 277 277 277 277 276 276 275 274 273 273 272 272 271 271 271 271 271 271 271 269 268 268 267 267 267 266 266 266 266 266 267 268 269 270 270 270 270 270 270 270 270 271 272 273 273 273 273 272 271 270 270 270 269 268 267 267 266 265 265 264 264 265 266 268 269 270
283 283 283 283 283 283 283 283 282 282 282 281 281 280 280 280 279 279 278 278 277 277 277 276 275 275 274 274 273 273 272 272 271 271 270 270 270 269 269 268 267 267 267 267 267 267 267 267 266 267 267 269 270 270 270 270 270 269 269 269 270 270 271 272 273 273 273 272 271 270 270 270 269 269 268 268 267 266 265 264 264 264 266 268 269
286 286 286 286 285 285 285 284 284 283 282 282 281 280 280 279 279 279 279 278 278 277 277 276 275 275 274 273 273 273 273 272 272 271 271 270 269 268 268 268 268 267 267 267 268 268 268 267 267 267 267 268 269 269 270 270 270 269 269 269 269 269 269 271 272 273 273 273 272 271 270 270 269 268 268 267 266 266 265 265 264 264 265 266 268
286 286 286 286 286 286 285 284 284 283 282 281 281 280 280 279 279 278 278 278 277 277 276 276 275 274 273 272 272 272 272 272 272 272 272 272 271 270 269 267 267 267 267 267 268 268 269 268 268 267 267 267 268 268 269 269 270 270 269 269 268 268 268 269 270 271 272 273 272 272 271 271 270 269 267 266 266 265 265 265 265 264 264 265 266
286 286 286 286 285 285 285 285 284 283 283 282 281 280 280 280 279 279 278 277 277 276 275 275 274 274 273 272 271 271 271 271 271 272 272 272 272 272 270 268 267 266 266 266 267 268 269 269 269 269 268 268 268 268 269 270 270 271 271 270 269 269 268 268 269 269 270 271 272 272 272 272 271 270 269 267 266 266 265 266 267 266 266 266 266
Height
3222 3224 3227 3229 3231 3232 3234 3235 3236 3236 3237 3238 3239 3239 3240 3241 3241 3242 3243 3243 3244 3244 3245 3246 3246 3247 3247 3248 3248 3249 3249 3250 3251 3251 3252 3252 3253 3254 3254 3255 3255 3256 3256 3257 3257 3258 3259 3259 3260 3261 3261 3261 3262 3262 3263 3263 3264 3264 3264 3264 3264 3264 3264 3264 3264 3264 3264 3264 3264 3264 3264 3264 3264 3264 3264 3264 3263 3262 3262 3261 3260 3260 3259 3258 3257
3220 3222 3223 3226 3229 3231 3233 3235 3236 3237 3237 3237 3238 3239 3239 3240 3240 3241 3242 3242 3243 3244 3244 3245 3246 3246 3247 3247 3248 3248 3249 3249 3250 3251 3251 3252 3252 3253 3253 3254 3254 3255 3255 3256 3256 3257 3258 3258 3259 3259 3260 3260 3260 3261 3261 3262 3262 3262 3262 3263 3263 3263 3263 3263 3263 3263 3263 3263 3262 3262 3262 3262 3262 3262 3262 3262 3261 3261 3260 3260 3259 3258 3257 3257 3256
3220 3221 3222 3223 3225 3228 3231 3234 3235 3236 3237 3237 3237 3238 3238 3239 3239 3240 3241 3241 3242 3243 3244 3244 3245 3246 3246 3247 3247 3248 3248 3249 3249 3250 3251 3251 3252 3252 3253 3253 3254 3254 3255 3255 3255 3256 3257 3257 3258 3258 3258 3259 3259 3259 3260 3260 3260 3261 3261 3261 3261 3261 3261 3261 3261 3262 3262 3262 3261 3261 3261 3260 3260 3260 3260 3259 3259 3259 3259 3258 3257 3256 3256 3256 3255
3219 3221 3222 3223 3224 3225 3227 3231 3233 3235 3236 3237 3237 3237 3237 3237 3238 3238 3239 3240 3241 3241 3242 3243 3244 3245 3246 3246 3247 3247 3248 3248 3249 3249 3250 3250 3251 3251 3252 3253 3253 3254 3254 3254 3255 3255 3255 3256 3256 3257 3257 3257 3258 3258 3258 3258 3259 3259 3259 3260 3260 3260 3260 3260 3260 3260 3260 3260 3260 3259 3259 3259 3258 3258 3258 3258 3257 3257 3257 3257 3256 3255 3254 3254 3253
3217 3219 3221 3223 3224 3224 3225 3227 3230 3233 3235 3235 3235 3235 3235 3235 3235 3236 3237 3238 3239 3240 3241 3242 3243 3244 3244 3245 3246 3247 3247 3248 3248 3248 3249 3249 3250 3250 3251 3252 3252 3253 3253 3253 3254 3254 3254 3255 3255 3255 3256 3256 3256 3256 3257 3257 3257 3258 3258 3258 3258 3259 3258 3258 3258 3258 3258 3258 3258 3258 3257 3257 3257 3257 3256 3256 3256 3256 3255 3255 3254 3253 3253 3252 3252
3217 3218 3219 3221 3222 3223 3225 3227 3228 3231 3233 3234 3234 3234 3233 3234 3234 3234 3235 3236 3237 3238 3239 3240 3241 3242 3243 3244 3244 3245 3246 3247 3247 3248 3248 3248 3249 3249 3250 3251 3251 3252 3252 3253 3253 3253 3253 3253 3254 3254 3254 3254 3255 3255 3255 3255 3255 3256 3256 3257 3257 3257 3257 3257 3257 3257 3257 3257 3257 3256 3256 3256 3256 3256 3255 3254 3254 3254 3254 3253 3253 3252 3251 3250 3250
3214 3216 3218 3219 3221 3223 3226 3228 3228 3229 3231 3232 3232 3232 3233 3233 3233 3233 3234 3234 3235 3236 3237 3238 3239 3240 3241 3242 3243 3244 3245 3245 3246 3247 3247 3248 3248 3249 3249 3250 3250 3251 3251 3251 3252 3252 3252 3252 3253 3253 3253 3253 3253 3253 3253 3254 3254 3254 3255 3255 3255 3255 3255 3256 3255 3255 3255 3255 3255 3255 3255 3254 3254 3254 3254 3253 3253 3252 3252 3251 3251 3251 3250 3249 3248
3212 3214 3216 3217 3219 3222 3225 3227 3227 3228 3229 3230 3230 3230 3231 3231 3232 3233 3233 3233 3234 3234 3235 3236 3237 3238 3239 3240 3241 3242 3243 3244 3245 3246 3246 3247 3247 3248 3248 3248 3249 3249 3250 3250 3250 3251 3251 3251 3252 3252 3252 3252 3252 3252 3252 3252 3252 3253 3253 3253 3253 3253 3254 3254 3254 3253 3253 3253 3253 3253 3253 3253 3252 3252 3252 3251 3251 3251 3250 3249 3248 3249 3248 3247 3246
3210 3212 3215 3216 3218 3220 3222 3224 3225 3225 3226 3227 3227 3228 3228 3229 3230 3231 3232 3232 3233 3233 3234 3235 3235 3236 3237 3238 3239 3240 3241 3242 3243 3244 3245 3245 3246 3246 3247 3247 3247 3248 3248 3249 3249 3249 3250 3250 3251 3251 3251 3251 3251 3251 3251 3251 3251 3252 3252 3252 3252 3252 3252 3252 3251 3251 3251 3251 3251 3251 3251 3251 3251 3251 3251 3250 3250 3249 3248 3247 3246 3246 3245 3245 3244
3207 3210 3212 3213 3215 3217 3218 3220 3222 3223 3223 3223 3224 3224 3225 3226 3226 3227 3229 3230 3231 3232 3233 3234 3234 3235 3236 3237 3237 3238 3238 3240 3241 3242 3243 3243 3244 3245 3245 3245 3246 3246 3246 3247 3247 3248 3248 3248 3249 3249 3249 3250 3250 3250 3250 3250 3250 3251 3251 3250 3250 3250 3250 3250 3250 3250 3249 3249 3249 3249 3249 3249 3250 3249 3249 3249 3248 3247 3246 3245 3244 3244 3243 3242 3242
3205 3207 3208 3210 3212 3214 3216 3216 3216 3218 3219 3220 3220 3219 3220 3222 3223 3224 3226 3227 3228 3230 3231 3232 3233 3234 3235 3235 3236 3237 3237 3238 3239 3239 3240 3241 3242 3242 3243 3243 3243 3244 3244 3244 3245 3246 3246 3246 3247 3247 3247 3248 3248 3249 3249 3249 3249 3249 3249 3249 3249 3249 3249 3249 3249 3248 3248 3248 3248 3248 3247 3247 3248 3247 3247 3247 3246 3245 3244 3243 3242 3242 3241 3239 3239
3203 3204 3206 3207 3209 3211 3212 3212 3211 3212 3215 3216 3215 3213 3214 3216 3219 3221 3223 3224 3225 3227 3228 3229 3231 3232 3232 3233 3234 3235 3236 3237 3237 3237 3238 3239 3239 3240 3240 3241 3241 3241 3242 3242 3243 3244 3244 3244 3245 3245 3245 3246 3246 3246 3247 3247 3247 3247 3247 3247 3247 3247 3247 3247 3247 3247 3247 3246 3246 3246 3246 3245 3245 3245 3245 3244 3244 3243 3242 3241 3240 3239 3238 3237 3237
3201 3202 3203 3205 3206 3207 3208 3208 3208 3210 3212 3213 3211 3210 3211 3213 3215 3217 3220 3221 3222 3224 3226 3227 3228 3229 3230 3231 3231 3233 3234 3236 3236 3236 3236 3236 3237 3237 3237 3238 3238 3239 3239 3240 3241 3241 3242 3242 3242 3243 3243 3243 3244 3244 3244 3244 3244 3245 3245 3245 3245 3245 3245 3245 3245 3245 3245 3245 3244 3244 3244 3243 3243 3244 3243 3242 3241 3240 3240 3239 3238 3237 3236 3235 3234
3199 3200 3201 3202 3204 3205 3205 3206 3207 3209 3210 3211 3210 3210 3211 3212 3213 3215 3217 3219 3220 3221 3223 3224 3225 3226 3227 3228 3229 3230 3230 3232 3234 3234 3235 3234 3234 3234 3234 3235 3235 3236 3236 3237 3238 3238 3239 3239 3240 3240 3241 3241 3241 3241 3241 3241 3241 3241 3241 3241 3242 3242 3242 3242 3242 3243 3243 3242 3242 3242 3243 3242 3242 3242 3241 3240 3239 3238 3237 3236 3235 3234 3234 3233 3232
3197 3198 3199 3200 3201 3203 3204 3204 3206 3207 3208 3209 3210 3210 3210 3210 3212 3214 3215 3216 3218 3219 3220 3221 3223 3223 3224 3225 3226 3226 3227 3227 3229 3230 3232 3232 3232 3232 3232 3232 3233 3233 3234 3235 3235 3236 3237 3237 3237 3238 3238 3239 3239 3239 3238 3238 3238 3237 3237 3237 3238 3238 3239 3239 3239 3240 3240 3239 3239 3239 3240 3240 3239 3239 3239 3238 3237 3236 3235 3233 3232 3232 3231 3230 3230
3194 3195 3197 3198 3200 3201 3202 3203 3204 3204 3205 3207 3208 3209 3209 3209 3210 3211 3212 3214 3215 3216 3217 3218 3219 3220 3221 3222 3222 3223 3223 3223 3224 3225 3227 3228 3229 3229 3229 3230 3230 3230 3231 3232 3233 3233 3234 3234 3234 3235 3235 3236 3236 3236 3236 3235 3234 3234 3234 3234 3234 3234 3234 3235 3236 3236 3236 3236 3235 3235 3236 3236 3236 3235 3235 3235 3234 3233 3232 3230 3230 3230 3228 3227 3227
3192 3193 3195 3196 3198 3199 3200 3201 3202 3202 3203 3204 3205 3206 3206 3206 3207 3208 3210 3211 3212 3213 3214 3215 3216 3217 3218 3218 3219 3219 3220 3220 3220 3221 3222 3223 3225 3225 3226 3226 3227 3227 3228 3229 3229 3230 3230 3231 3231 3231 3231 3232 3233 3233 3233 3233 3231 3231 3230 3231 3231 3230 3231 3232 3232 3232 3232 3232 3232 3231 3231 3231 3231 3231 3231 3231 3230 3230 3228 3227 3228 3228 3226 3224 3224
3190 3191 3193 3194 3195 3196 3197 3199 3200 3200 3201 3201 3202 3203 3203 3203 3204 3205 3207 3208 3209 3210 3211 3211 3212 3213 3214 3215 3215 3215 3216 3216 3216 3217 3218 3219 3221 3222 3223 3223 3223 3224 3224 3225 3226 3226 3227 3228 3228 3228 3228 3229 3229 3230 3230 3229 3228 3228 3228 3228 3227 3227 3228 3229 3229 3229 3229 3228 3227 3227 3226 3226 3227 3226 3226 3226 3226 3225 3224 3223 3224 3224 3223 3221 3221
3189 3190 3192 3193 3193 3194 3195 3196 3197 3197 3198 3199 3199 3200 3200 3200 3201 3202 3203 3204 3205 3206 3207 3208 3208 3209 3210 3211 3211 3212 3213 3213 3214 3215 3216 3217 3218 3219 3220 3220 3220 3221 3221 3221 3222 3223 3223 3224 3225 3225 3225 3225 3226 3226 3226 3226 3225 3225 3225 3224 3223 3224 3225 3225 3224 3224 3224 3224 3223 3223 3223 3223 3223 3222 3222 3223 3222 3221 3220 3220 3220 3220 3219 3218 3218
3189 3190 3191 3192 3192 3193 3193 3194 3194 3194 3195 3196 3197 3198 3198 3198 3199 3199 3200 3201 3201 3202 3203 3204 3204 3205 3206 3207 3208 3209 3210 3211 3212 3213 3213 3213 3213 3214 3214 3215 3215 3216 3216 3216 3217 3218 3219 3220 3221 3221 3221 3221 3222 3222 3222 3221 3221 3221 3221 3220 3220 3221 3222 3220 3219 3219 3219 3219 3219 3219 3219 3219 3219 3218 3219 3219 3219 3219 3218 3217 3216 3215 3215 3214 3215
3189 3190 3190 3191 3192 3192 3192 3193 3193 3193 3193 3194 3195 3196 3196 3196 3196 3197 3197 3197 3198 3198 3199 3199 3200 3201 3202 3203 3204 3205 3206 3208 3209 3208 3208 3207 3207 3208 3208 3209 3210 3211 3211 3211 3212 3213 3214 3215 3216 3217 3217 3217 3217 3217 3217 3217 3216 3216 3216 3216 3216 3217 3217 3215 3215 3215 3214 3214 3215 3215 3214 3215 3214 3214 3214 3214 3215 3215 3215 3214 3213 3211 3210 3210 3210
3188 3189 3189 3190 3190 3191 3191 3191 3191 3192 3192 3193 3194 3194 3194 3194 3194 3194 3194 3194 3194 3194 3195 3195 3196 3197 3198 3199 3200 3201 3202 3203 3204 3204 3204 3204 3204 3204 3205 3206 3207 3207 3207 3208 3209 3209 3210 3211 3212 3212 3212 3212 3212 3212 3212 3212 3212 3211 3212 3212 3212 3213 3212 3212 3211 3211 3210 3210 3210 3210 3210 3210 3209 3209 3209 3209 3210 3210 3210 3210 3209 3208 3206 3206 3206
3186 3186 3187 3187 3188 3189 3190 3190 3190 3191 3191 3191 3192 3193 3193 3193 3193 3193 3192 3192 3192 3192 3191 3192 3192 3192 3193 3194 3195 3196 3197 3198 3199 3199 3200 3200 3200 3201 3202 3203 3203 3203 3203 3204 3205 3206 3206 3207 3207 3208 3207 3207 3207 3207 3207 3208 3208 3208 3208 3208 3208 3208 3208 3208 3208 3207 3206 3206 3205 3205 3205 3205 3205 3204 3204 3204 3205 3205 3205 3204 3204 3203 3203 3202 3202
3183 3184 3185 3185 3186 3186 3187 3188 3189 3189 3189 3190 3190 3191 3191 3192 3192 3192 3191 3190 3190 3189 3189 3189 3189 3189 3189 3190 3190 3191 3192 3192 3193 3194 3195 3195 3196 3197 3197 3198 3199 3199 3199 3199 3200 3201 3201 3202 3202 3203 3203 3202 3202 3202 3202 3203 3204 3204 3204 3204 3204 3204 3203 3203 3203 3202 3201 3201 3200 3200 3201 3201 3200 3200 3200 3200 3200 3199 3198 3198 3199 3199 3198 3198 3198
3179 3180 3182 3183 3183 3183 3184 3185 3186 3186 3187 3188 3188 3188 3188 3189 3189 3189 3188 3188 3187 3187 3187 3186 3186 3186 3186 3186 3186 3187 3187 3187 3188 3189 3189 3190 3191 3192 3193 3193 3193 3194 3194 3194 3194 3195 3196 3197 3197 3198 3198 3198 3198 3198 3198 3199 3199 3200 3200 3200 3199 3200 3199 3199 3199 3198 3197 3196 3196 3196 3196 3196 3196 3196 3196 3195 3194 3193 3193 3193 3193 3193 3193 3192 3192
3176 3177 3178 3179 3180 3181 3180 3181 3182 3183 3183 3183 3184 3184 3184 3185 3185 3185 3185 3184 3184 3184 3184 3183 3182 3182 3182 3182 3183 3183 3183 3183 3183 3184 3184 3185 3186 3187 3188 3188 3188 3189 3189 3190 3190 3190 3190 3191 3192 3193 3193 3193 3194 3194 3194 3195 3195 3196 3196 3195 3195 3195 3195 3195 3194 3193 3192 3192 3191 3191 3190 3190 3190 3191 3191 3190 3189 3188 3188 3188 3188 3188 3187 3186 3186
3173 3174 3175 3175 3177 3177 3177 3178 3179 3179 3179 3179 3179 3179 3180 3180 3180 3180 3180 3180 3180 3180 3180 3180 3179 3179 3179 3179 3179 3179 3179 3179 3179 3180 3180 3181 3181 3182 3183 3183 3183 3184 3184 3185 3185 3185 3185 3185 3186 3187 3188 3189 3189 3189 3189 3190 3190 3191 3191 3191 3191 3190 3190 3190 3189 3188 3187 3187 3186 3186 3185 3185 3184 3184 3185 3184 3184 3184 3183 3183 3183 3183 3183 3182 3181
3170 3170 3171 3172 3173 3173 3173 3174 3174 3174 3174 3174 3175 3175 3175 3176 3176 3176 3176 3176 3176 3176 3176 3176 3176 3176 3176 3176 3176 3176 3175 3175 3175 3176 3176 3177 3177 3178 3178 3178 3178 3179 3179 3180 3180 3181 3181 3181 3181 3182 3183 3183 3183 3184 3184 3184 3185 3185 3186 3186 3186 3186 3185 3185 3184 3183 3183 3182 3181 3181 3180 3180 3179 3179 3179 3178 3178 3179 3178 3178 3178 3179 3178 3177 3177
3166 3167 3167 3168 3169 3169 3170 3170 3171 3170 3170 3170 3170 3170 3171 3171 3172 3172 3171 3171 3171 3171 3172 3172 3172 3172 3172 3172 3172 3172 3172 3172 3172 3172 3172 3172 3173 3173 3173 3173 3173 3174 3174 3174 3175 3175 3175 3176 3176 3177 3177 3177 3178 3178 3179 3179 3179 3180 3180 3180 3180 3180 3180 3180 3179 3179 3179 3178 3177 3176 3176 3176 3175 3175 3174 3173 3173 3173 3173 3173 3173 3174 3174 3173 3174
3162 3162 3163 3164 3164 3165 3166 3166 3167 3166 3166 3166 3166 3167 3167 3166 3167 3167 3167 3167 3167 3167 3168 3168 3168 3168 3168 3168 3168 3168 3168 3168 3169 3168 3168 3168 3168 3168 3169 3169 3169 3169 3169 3169 3169 3169 3169 3170 3171 3171 3171 3171 3172 3173 3173 3174 3174 3174 3175 3175 3175 3175 3175 3175 3175 3175 3175 3174 3173 3172 3172 3172 3172 3171 3169 3169 3168 3168 3168 3168 3169 3169 3169 3169 3169
3158 3158 3159 3160 3160 3161 3162 3162 3163 3163 3163 3163 3163 3163 3162 3162 3162 3163 3163 3163 3163 3163 3163 3163 3163 3163 3163 3163 3164 3164 3164 3164 3164 3164 3164 3164 3164 3164 3164 3164 3164 3164 3164 3164 3164 3164 3164 3164 3164 3165 3165 3165 3166 3167 3168 3168 3168 3168 3169 3169 3170 3170 3170 3170 3170 3170 3170 3169 3169 3168 3168 3168 3167 3167 3166 3165 3165 3164 3164 3164 3164 3164 3164 3164 3164
3154 3154 3155 3156 3156 3157 3158 3158 3159 3160 3160 3160 3160 3159 3159 3159 3159 3159 3159 3159 3159 3159 3159 3159 3158 3158 3158 3158 3159 3159 3160 3159 3159 3160 3160 3160 3160 3160 3160 3160 3160 3159 3159 3159 3159 3159 3159 3159 3159 3159 3159 3160 3160 3161 3162 3162 3162 3162 3162 3163 3164 3164 3164 3165 3165 3164 3164 3164 3164 3164 3164 3163 3163 3162 3162 3161 3161 3161 3160 3160 3159 3159 3159 3159 3160
3150 3151 3151 3152 3153 3153 3154 3155 3156 3157 3157 3157 3157 3156 3156 3156 3156 3155 3155 3155 3155 3155 3155 3154 3154 3154 3153 3153 3154 3154 3154 3154 3154 3155 3155 3155 3156 3156 3156 3156 3156 3155 3155 3155 3154 3154 3154 3154 3155 3155 3155 3155 3155 3155 3156 3156 3156 3156 3156 3157 3157 3158 3159 3159 3159 3158 3158 3159 3159 3159 3159 3159 3158 3158 3157 3157 3157 3156 3155 3155 3154 3154 3154 3155 3155
3147 3147 3148 3148 3149 3150 3150 3151 3152 3152 3153 3153 3153 3153 3152 3152 3152 3152 3152 3152 3151 3151 3151 3150 3150 3149 3149 3149 3149 3149 3149 3149 3149 3150 3151 3151 3151 3152 3152 3151 3151 3150 3150 3150 3150 3149 3149 3150 3150 3150 3150 3150 3150 3150 3150 3151 3151 3151 3151 3151 3151 3152 3153 3153 3153 3153 3153 3153 3153 3154 3154 3154 3153 3153 3153 3153 3152 3151 3150 3150 3150 3149 3150 3150 3151
3144 3144 3145 3145 3146 3147 3147 3147 3148 3148 3148 3149 3149 3149 3149 3149 3149 3149 3149 3149 3149 3148 3147 3146 3145 3145 3145 3144 3144 3144 3144 3144 3144 3145 3146 3147 3147 3146 3146 3146 3145 3145 3144 3144 3144 3145 3145 3145 3145 3145 3145 3144 3144 3144 3144 3144 3145 3145 3145 3145 3146 3146 3147 3147 3148 3148 3148 3148 3148 3148 3148 3148 3148 3148 3148 3147 3146 3145 3145 3146 3146 3146 3145 3145 3145
3141 3141 3142 3142 3142 3143 3143 3144 3144 3144 3144 3144 3144 3145 3145 3145 3145 3145 3145 3145 3145 3145 3144 3143 3142 3141 3140 3139 3139 3139 3139 3139 3139 3140 3140 3141 3141 3141 3140 3140 3139 3139 3139 3138 3138 3139 3139 3139 3139 3139 3139 3139 3139 3139 3138 3138 3139 3139 3139 3139 3140 3140 3140 3141 3142 3142 3143 3143 3142 3142 3142 3143 3143 3143 3142 3141 3140 3140 3140 3140 3140 3140 3140 3140 3140
3137 3138 3138 3138 3138 3139 3139 3140 3140 3140 3140 3140 3140 3140 3140 3141 3141 3141 3141 3141 3141 3140 3140 3140 3139 3138 3137 3135 3134 3134 3134 3134 3134 3134 3135 3135 3135 3135 3134 3134 3133 3133 3133 3133 3133 3133 3133 3133 3132 3132 3132 3133 3133 3133 3133 3133 3133 3133 3133 3133 3134 3134 3134 3134 3135 3135 3135 3136 3137 3137 3136 3137 3137 3137 3136 3135 3134 3134 3134 3134 3134 3133 3134 3134 3134
3134 3134 3134 3134 3134 3134 3135 3135 3135 3135 3135 3135 3136 3136 3136 3136 3136 3136 3136 3136 3136 3136 3136 3135 3135 3134 3133 3132 3130 3129 3129 3129 3129 3129 3129 3129 3129 3129 3129 3128 3128 3127 3127 3127 3127 3127 3127 3127 3127 3126 3126 3126 3126 3127 3127 3127 3127 3127 3128 3128 3128 3128 3128 3128 3129 3129 3129 3129 3130 3130 3131 3131 3131 3131 3130 3129 3128 3128 3129 3129 3129 3128 3128 3128 3127
3129 3130 3130 3130 3130 3130 3130 3130 3130 3130 3130 3130 3131 3131 3131 3131 3131 3131 3131 3131 3131 3131 3130 3130 3130 3129 3129 3128 3127 3126 3124 3124 3123 3123 3124 3124 3124 3123 3123 3123 3122 3122 3121 3120 3120 3120 3121 3121 3120 3120 3120 3120 3119 3120 3121 3121 3121 3122 3122 3122 3122 3122 3122 3122 3122 3123 3122 3122 3122 3123 3124 3124 3124 3124 3124 3123 3122 3122 3122 3123 3123 3123 3122 3122 3121
3125 3125 3125 3125 3125 3125 3125 3125 3125 3125 3125 3126 3126 3126 3125 3125 3125 3126 3126 3126 3126 3125 3125 3124 3124 3124 3123 3122 3122 3121 3120 3120 3119 3118 3117 3118 3118 3118 3117 3117 3117 3116 3115 3114 3113 3113 3113 3114 3114 3114 3113 3113 3113 3113 3114 3114 3115 3115 3116 3115 3115 3116 3116 3116 3116 3116 3116 3116 3116 3117 3117 3117 3117 3117 3117 3116 3116 3116 3116 3116 3116 3117 3116 3116 3116
3121 3121 3121 3121 3120 3120 3120 3120 3120 3120 3121 3121 3121 3120 3120 3120 3120 3120 3120 3120 3120 3120 3119 3119 3118 3118 3117 3116 3116 3115 3115 3114 3114 3113 3112 3112 3112 3112 3112 3111 3111 3110 3109 3108 3107 3107 3106 3107 3107 3107 3107 3107 3107 3107 3107 3107 3108 3108 3109 3109 3109 3109 3110 3110 3109 3109 3109 3110 3110 3110 3111 3111 3111 3110 3109 3109 3109 3109 3109 3109 3110 3110 3110 3110 3110
3116 3116 3116 3116 3116 3116 3116 3116 3116 3116 3116 3115 3115 3115 3115 3115 3115 3114 3114 3114 3114 3114 3114 3113 3113 3112 3111 3111 3110 3109 3109 3108 3108 3107 3107 3106 3105 3105 3105 3105 3104 3103 3102 3102 3101 3100 3100 3100 3100 3100 3100 3101 3101 3100 3100 3100 3101 3101 3102 3102 3103 3103 3103 3103 3103 3102 3103 3103 3104 3104 3104 3104 3103 3103 3103 3103 3102 3102 3102 3102 3103 3103 3103 3103 3103
3112 3112 3112 3112 3112 3112 3112 3112 3111 3111 3111 3110 3110 3110 3110 3109 3109 3109 3109 3108 3108 3108 3108 3107 3107 3106 3106 3105 3104 3103 3102 3102 3101 3101 3100 3100 3099 3099 3098 3098 3097 3097 3096 3095 3094 3093 3093 3093 3093 3093 3093 3093 3094 3094 3094 3094 3094 3094 3095 3095 3095 3096 3096 3096 3096 3096 3096 3096 3096 3096 3096 3096 3096 3096 3096 3096 3096 3095 3094 3095 3095 3096 3096 3097 3097
3109 3108 3108 3108 3107 3107 3107 3107 3107 3106 3106 3106 3105 3105 3105 3104 3104 3103 3103 3102 3102 3102 3102 3101 3101 3100 3100 3099 3098 3097 3096 3096 3095 3094 3094 3093 3093 3092 3092 3091 3091 3090 3089 3089 3088 3087 3086 3086 3086 3086 3086 3086 3086 3086 3087 3087 3087 3087 3087 3088 3088 3089 3089 3089 3089 3089 3089 3089 3089 3089 3089 3089 3089 3089 3089 3089 3089 3088 3088 3088 3088 3088 3089 3089 3090
3105 3105 3104 3104 3103 3103 3102 3102 3102 3101 3101 3101 3100 3100 3100 3099 3098 3098 3097 3096 3096 3096 3095 3095 3095 3094 3093 3093 3092 3091 3090 3090 3089 3088 3088 3087 3086 3085 3085 3084 3084 3083 3082 3082 3082 3081 3080 3079 3079 3078 3079 3079 3079 3079 3079 3080 3080 3080 3079 3080 3080 3081 3081 3081 3081 3082 3082 3082 3081 3082 3082 3082 3082 3082 3082 3082 3082 3081 3081 3081 3081 3081 3081 3081 3082
3101 3101 3100 3100 3099 3099 3098 3097 3097 3096 3096 3095 3095 3094 3094 3094 3093 3092 3091 3090 3090 3089 3089 3088 3088 3087 3087 3086 3085 3084 3084 3083 3082 3082 3081 3080 3080 3079 3079 3078 3077 3075 3075 3075 3075 3074 3074 3073 3072 3071 3071 3071 3072 3072 3072 3072 3072 3072 3072 3072 3072 3072 3073 3073 3074 3074 3075 3074 3074 3074 3075 3075 3075 3075 3075 3075 3074 3074 3074 3074 3074 3074 3073 3074 3074
3097 3097 3096 3095 3095 3094 3093 3093 3092 3091 3091 3090 3089 3089 3088 3088 3087 3086 3085 3084 3083 3083 3082 3081 3081 3080 3080 3079 3079 3078 3077 3076 3075 3075 3074 3073 3073 3073 3072 3071 3070 3069 3068 3067 3067 3067 3067 3066 3066 3065 3065 3064 3065 3065 3065 3065 3064 3064 3064 3064 3064 3064 3065 3065 3065 3066 3067 3067 3067 3067 3067 3067 3068 3068 3068 3067 3067 3067 3067 3067 3067 3066 3066 3066 3066
3093 3092 3091 3091 3090 3089 3088 3088 3087 3086 3085 3084 3083 3083 3082 3081 3080 3080 3079 3078 3077 3076 3075 3075 3074 3073 3073 3072 3072 3071 3070 3069 3068 3068 3067 3066 3066 3066 3065 3064 3063 3062 3061 3060 3060 3060 3060 3059 3059 3059 3058 3058 3058 3058 3058 3057 3057 3057 3057 3057 3057 3056 3056 3056 3057 3058 3058 3058 3059 3060 3060 3060 3061 3061 3061 3061 3060 3059 3059 3059 3059 3059 3058 3058 3058
3088 3087 3086 3086 3085 3084 3083 3082 3081 3080 3079 3078 3077 3076 3076 3075 3074 3073 3072 3071 3070 3069 3069 3068 3067 3067 3066 3065 3065 3064 3063 3062 3061 3060 3060 3059 3059 3059 3059 3058 3057 3056 3055 3054 3053 3053 3052 3052 3052 3052 3052 3051 3050 3050 3050 3049 3049 3049 3049 3049 3049 3049 3048 3048 3049 3049 3049 3050 3051 3052 3052 3052 3053 3054 3054 3054 3053 3052 3052 3052 3051 3051 3051 3051 3051
3083 3082 3081 3080 3079 3078 3077 3076 3075 3074 3073 3072 3071 3070 3069 3068 3067 3066 3065 3064 3063 3063 3062 3061 3060 3060 3059 3058 3058 3057 3056 3055 3054 3054 3053 3053 3052 3052 3052 3051 3051 3050 3049 3048 3047 3046 3045 3045 3045 3045 3045 3044 3043 3043 3042 3042 3042 3042 3042 3042 3041 3041 3041 3041 3041 3041 3041 3041 3042 3043 3044 3044 3045 3046 3046 3046 3046 3046 3046 3045 3044 3044 3044 3044 3044
3078 3077 3076 3075 3074 3072 3071 3070 3069 3068 3067 3066 3064 3063 3062 3061 3060 3059 3058 3057 3056 3056 3055 3054 3053 3052 3052 3051 3051 3050 3050 3049 3048 3047 3046 3046 3045 3045 3044 3044 3044 3043 3042 3041 3040 3039 3038 3039 3039 3039 3038 3037 3037 3036 3035 3035 3035 3034 3034 3034 3034 3034 3034 3033 3033 3034 3033 3033 3033 3034 3035 3036 3037 3037 3038 3038 3038 3039 3039 3039 3038 3037 3037 3037 3037